Погода в Пеньисколе

Испания     40°21′35″N   0°24′07″E
темп.,
°C
ветер,
м/с
пор.,
м/с
влажн.,
%
обл.,
%
осадки,
мм/ч
давл.,
гПа
погр.,
м
20 января, чт
чт2001:00+12зсз3659100 0.0 1028535
04:00+11сз811625 0.0 1028972
07:00+10ссв45641 0.0 1028547
10:00+10ссв43670 0.0 1029404
13:00+10св22650 0.0 1028340
16:00+11всв22610 0.0 1026340
19:00+11ююв01610 0.0 1025339
22:00+11з33640 0.0 1026346
21 января, пт
пт2101:00+11сз68640 0.0 1025512
04:00+11ссз58611 0.0 1024712
07:00+10ссз57622 0.0 1024616
10:00+10ссз77612 0.0 1025451
13:00+10с23534 0.0 1025657
16:00+10вюв33621 0.0 1025441
19:00+11вюв22600 0.0 1026491
22:00+11ссз11571 0.0 1028530
22 января, сб
сб2201:00+9с43533 0.0 1029272
04:00+8ссв32523 0.0 1029353
07:00+8с22525 0.0 1030376
10:00+8с21505 0.0 1031295
13:00+8св21514 0.0 1030281
16:00+9в21571 0.0 1029284
19:00+9ююв11610 0.0 1029425
22:00+10сз11630 0.0 1030400
23 января, вс
вс2301:00+9сз21670 0.0 1029340
04:00+9ссз21690 0.0 1028268
07:00+9с22670 0.0 1028333
10:00+9ссв22611 0.0 1029402
13:00+10св32590 0.0 1029369
16:00+10всв33620 0.0 1028409
19:00+10всв22640 0.0 1029480
22:00+10ссв33600 0.0 1030615
24 января, пн
пн2401:00+10с33580 0.0 1030451
04:00+10ссв44611 0.0 1030463
07:00+9с44672 0.0 1031425
10:00+10с44685 0.0 1032391
13:00+10ссв33704 0.0 1033362
16:00+11всв22713 0.0 1032339
19:00+11в22730 0.0 1033415
22:00+11з11720 0.0 1034457